GW4025 Weather Reports


Display with metric or nautical units.
time (UTC)temp
F
wind
direction
speed
MPH
gust
MPH
rain 1hr
in
rain 24hr
in
rain mn
in
humidity
%
barometer
mb
20260506223603 54 355 1.0 4.0 0.00 0.21 0.00 83 1003.6
20260506222919 55 355 1.0 4.0 0.00 0.21 0.00 83 1003.4
20260506221805 55 353 0.0 3.0 0.00 0.21 0.00 83 1003.4
20260506220903 56 6 0.0 1.0 0.00 0.21 0.00 83 1003.5
20260506220005 56 354 1.0 3.0 0.00 0.21 0.00 83 1003.3
20260506215403 56 340 1.0 3.0 0.00 0.21 0.21 83 1003.2
20260506214503 55 5 0.0 2.0 0.00 0.21 0.21 85 1003.2
20260506213605 56 295 0.0 1.0 0.00 0.21 0.21 85 1002.9
20260506212703 56 66 0.0 1.0 0.00 0.21 0.21 84 1002.8
20260506211803 56 74 0.0 4.0 0.00 0.21 0.21 84 1002.9
20260506210903 56 73 0.0 1.0 0.00 0.21 0.21 84 1002.7
20260506210004 56 355 0.0 1.0 0.00 0.21 0.21 84 1002.5
20260506205403 56 358 0.0 1.0 0.00 0.21 0.21 83 1002.7
20260506204503 56 330 0.0 2.0 0.00 0.21 0.21 83 1002.6
20260506203603 56 38 0.0 2.0 0.00 0.21 0.21 82 1002.4
20260506202703 56 0 0.0 0.0 0.00 0.21 0.21 82 1002.2
20260506201805 57 46 0.0 1.0 0.00 0.21 0.21 81 1002.4
20260506200903 58 353 0.0 2.0 0.00 0.21 0.21 78 1002.1
20260506200005 58 212 0.0 2.0 0.00 0.21 0.21 77 1001.9
20260506195619 58 255 0.0 3.0 0.00 0.21 0.21 77 1002.0
20260506194506 58 358 0.0 1.0 0.00 0.21 0.21 81 1001.6
20260506193605 58 357 0.0 2.0 0.00 0.21 0.21 79 1001.2
20260506192703 59 323 0.0 2.0 0.00 0.21 0.21 78 1001.0
20260506191803 58 38 0.0 2.0 0.00 0.21 0.21 79 1000.9
20260506190903 60 246 0.0 1.0 0.00 0.21 0.21 78 1000.6
20260506185403 60 184 0.0 1.0 0.00 0.21 0.21 74 1000.5
20260506184503 61 0 0.0 0.0 0.00 0.21 0.21 75 1000.2
20260506183604 61 167 0.0 1.0 0.00 0.21 0.21 75 1000.1
20260506182704 60 346 0.0 1.0 0.00 0.21 0.21 80 999.8
20260506182019 61 49 0.0 1.0 0.00 0.21 0.21 78 999.6
20260506180903 63 304 0.0 1.0 0.00 0.21 0.21 75 999.6
20260506180217 63 263 0.0 2.0 0.00 0.21 0.21 69 999.3
20260506175403 63 107 0.0 4.0 0.00 0.21 0.21 66 999.0
20260506174504 64 345 0.0 1.0 0.00 0.21 0.21 65 999.0
20260506173603 64 338 0.0 2.0 0.00 0.21 0.21 67 998.9
20260506172705 64 354 0.0 2.0 0.00 0.21 0.21 67 998.6
20260506172018 64 351 0.0 2.0 0.00 0.21 0.21 71 998.6
20260506171118 65 347 0.0 4.0 0.00 0.21 0.21 70 998.6
20260506170217 65 350 1.0 4.0 0.00 0.21 0.21 64 998.5
20260506165403 65 360 0.0 2.0 0.00 0.21 0.21 68 998.6
20260506164503 65 0 0.0 0.0 0.00 0.21 0.21 67 998.5
20260506163603 65 50 0.0 1.0 0.00 0.21 0.21 68 998.6
20260506162703 65 119 0.0 2.0 0.00 0.21 0.21 66 998.4
20260506161803 66 294 0.0 3.0 0.00 0.21 0.21 66 998.6
20260506161117 67 271 1.0 3.0 0.00 0.21 0.21 66 998.4
20260506160217 66 68 0.0 2.0 0.00 0.21 0.21 66 998.3
20260506155403 67 90 0.0 6.0 0.00 0.21 0.21 65 998.5
20260506154505 67 263 1.0 3.0 0.00 0.21 0.21 62 998.3
20260506153603 67 251 0.0 3.0 0.00 0.21 0.21 63 998.3
20260506152703 67 0 0.0 0.0 0.00 0.21 0.21 64 998.4
20260506151803 66 165 1.0 4.0 0.00 0.21 0.21 63 998.4
20260506150903 67 292 0.0 2.0 0.00 0.21 0.21 62 998.3
20260506150003 65 206 0.0 3.0 0.00 0.21 0.21 63 998.5
20260506145403 66 201 0.0 3.0 0.00 0.21 0.21 66 998.3
20260506144503 66 155 0.0 1.0 0.00 0.21 0.21 62 998.5
20260506143605 69 222 0.0 3.0 0.00 0.21 0.21 60 998.5
20260506142703 67 165 0.0 1.0 0.00 0.21 0.21 62 998.5
20260506142017 66 0 0.0 0.0 0.00 0.21 0.21 65 998.4
20260506141117 67 344 0.0 1.0 0.00 0.21 0.21 65 998.6
20260506140004 65 0 0.0 0.0 0.00 0.21 0.21 63 998.8
20260506135620 65 156 0.0 3.0 0.00 0.21 0.21 62 998.8
20260506134503 66 201 1.0 6.0 0.00 0.21 0.21 61 998.9
20260506133603 67 194 0.0 3.0 0.00 0.21 0.21 62 998.9
20260506132703 64 0 0.0 0.0 0.00 0.21 0.21 71 999.0
20260506132017 63 0 0.0 0.0 0.00 0.21 0.21 69 999.1
20260506130903 64 172 0.0 1.0 0.00 0.21 0.21 68 999.2
20260506130004 65 211 1.0 6.0 0.00 0.21 0.21 65 999.1
20260506125619 66 198 0.0 6.0 0.00 0.21 0.21 63 999.2
20260506124503 67 172 1.0 7.0 0.00 0.21 0.21 61 999.0
20260506123818 66 211 1.0 7.0 0.00 0.21 0.21 62 998.9
20260506122703 65 160 1.0 7.0 0.00 0.21 0.21 65 999.0
20260506121803 65 155 0.0 6.0 0.00 0.21 0.21 66 998.9
20260506120903 65 168 1.0 4.0 0.00 0.21 0.21 67 999.0
20260506120003 65 179 1.0 6.0 0.00 0.21 0.21 67 999.1
20260506115403 64 177 2.0 7.0 0.00 0.21 0.21 68 999.0
20260506114503 65 184 1.0 6.0 0.00 0.21 0.21 67 999.0
20260506113604 65 196 1.0 7.0 0.00 0.21 0.21 67 999.3
20260506112703 65 358 0.0 2.0 0.00 0.21 0.21 68 999.1
20260506111803 65 108 0.0 4.0 0.00 0.21 0.21 67 999.0
20260506110905 64 120 0.0 4.0 0.00 0.21 0.21 70 999.2
20260506110003 63 109 0.0 4.0 0.00 0.21 0.21 70 999.2
20260506105405 61 124 0.0 1.0 0.00 0.21 0.21 72 999.3
20260506104503 62 151 0.0 1.0 0.00 0.21 0.21 72 999.5
20260506103603 62 220 0.0 3.0 0.00 0.21 0.21 73 999.7
20260506102703 62 355 0.0 3.0 0.00 0.21 0.21 72 999.9
20260506101805 61 137 0.0 4.0 0.00 0.21 0.21 76 999.8
20260506100903 61 173 0.0 2.0 0.00 0.21 0.21 75 999.9
20260506100004 60 160 0.0 1.0 0.00 0.21 0.21 77 999.9
20260506095404 61 180 0.0 6.0 0.00 0.21 0.21 77 1000.0
20260506094717 60 172 1.0 6.0 0.00 0.21 0.21 78 1000.0
20260506093817 59 179 0.0 1.0 0.00 0.21 0.21 80 1000.0
20260506092705 58 206 0.0 3.0 0.00 0.21 0.21 81 1000.1
20260506091803 58 144 0.0 1.0 0.00 0.21 0.21 81 1000.2
20260506090905 57 0 0.0 0.0 0.00 0.21 0.21 80 1000.1
20260506090003 58 0 0.0 0.0 0.00 0.21 0.21 82 1000.1
20260506085403 57 221 0.0 2.0 0.00 0.21 0.21 82 999.9
20260506084503 57 0 0.0 0.0 0.00 0.21 0.21 82 999.9
20260506083603 56 0 0.0 0.0 0.00 0.21 0.21 83 1000.1
20260506082703 56 0 0.0 0.0 0.00 0.21 0.21 84 999.9
20260506081803 57 0 0.0 0.0 0.00 0.21 0.21 84 999.8
20260506080903 56 0 0.0 0.0 0.00 0.21 0.21 84 999.8
20260506072919 56 0 0.0 0.0 0.00 0.21 0.21 86 1000.1
20260506072019 57 0 0.0 0.0 0.00 0.21 0.21 84 999.9
20260506070903 56 0 0.0 0.0 0.00 0.21 0.21 87 999.9
20260506061803 53 342 0.0 1.0 0.00 0.21 0.21 95 1000.6
20260506061118 52 2 0.0 1.0 0.00 0.21 0.21 95 1000.5
20260506050903 51 0 0.0 0.0 0.00 0.21 0.21 95 1001.0
20260506044503 51 0 0.0 0.0 0.00 0.21 0.21 95 1001.0
20260506043603 51 0 0.0 0.0 0.02 0.21 0.21 95 1001.3
20260506042703 51 0 0.0 0.0 0.03 0.21 0.21 95 1001.1
20260506041803 51 0 0.0 0.0 0.05 0.21 0.21 95 1001.1
20260506041122 51 0 0.0 0.0 0.07 0.21 0.21 95 1001.3
20260506040004 51 1 0.0 1.0 0.08 0.22 0.21 95 1001.4
20260506035405 51 0 0.0 0.0 0.09 0.22 0.21 95 1001.4
20260506034719 51 0 0.0 0.0 0.11 0.23 0.21 95 1001.4
20260506033605 51 331 0.0 1.0 0.12 0.25 0.19 95 1001.4
20260506032918 51 331 0.0 1.0 0.12 0.27 0.18 95 1001.1
20260506031805 51 0 0.0 0.0 0.13 0.32 0.16 95 1001.6
20260506031117 51 0 0.0 0.0 0.11 0.34 0.14 95 1002.0
20260506030003 51 0 0.0 0.0 0.10 0.39 0.13 95 1001.8
20260506025405 51 0 0.0 0.0 0.09 0.40 0.12 95 1001.9
20260506024503 51 0 0.0 0.0 0.07 0.41 0.10 95 1002.0
20260506023603 51 0 0.0 0.0 0.04 0.41 0.08 95 1002.0
20260506022703 51 0 0.0 0.0 0.03 0.42 0.06 95 1002.1
20260506021803 51 0 0.0 0.0 0.00 0.41 0.03 95 1002.2
20260506020903 51 0 0.0 0.0 0.00 0.42 0.03 95 1002.3
20260506020005 51 0 0.0 0.0 0.00 0.44 0.03 95 1002.4
20260506015403 51 0 0.0 0.0 0.00 0.44 0.03 95 1002.3
20260506014718 51 0 0.0 0.0 0.00 0.46 0.03 95 1002.2
20260506013603 51 0 0.0 0.0 0.00 0.48 0.03 94 1002.4
20260506012703 51 0 0.0 0.0 0.01 0.49 0.03 94 1002.6
20260506011803 51 0 0.0 0.0 0.01 0.49 0.03 94 1002.7
20260506010903 51 0 0.0 0.0 0.01 0.49 0.03 94 1002.5
20260506010219 51 0 0.0 0.0 0.01 0.49 0.03 94 1002.7
20260506005403 51 0 0.0 0.0 0.02 0.49 0.03 94 1002.9
20260506004505 51 0 0.0 0.0 0.02 0.49 0.03 94 1003.1
20260506003603 51 0 0.0 0.0 0.03 0.49 0.03 94 1002.9
20260506002703 51 0 0.0 0.0 0.02 0.48 0.02 94 1003.2
20260506002016 51 0 0.0 0.0 0.02 0.48 0.02 94 1003.5
20260506000903 52 0 0.0 0.0 0.02 0.48 0.02 94 1003.8
20260506000004 51 0 0.0 0.0 0.01 0.47 0.01 94 1003.8
20260505235403 51 0 0.0 0.0 0.01 0.47 0.01 93 1004.1
20260505234503 52 0 0.0 0.0 0.01 0.47 0.01 93 1004.1
20260505233603 52 17 0.0 1.0 0.00 0.46 0.00 93 1004.5
20260505232703 52 0 0.0 0.0 0.00 0.46 0.00 93 1004.6
20260505231803 52 0 0.0 0.0 0.00 0.47 0.00 93 1004.5
20260505231119 52 0 0.0 0.0 0.00 0.47 0.00 93 1004.6
20260505230005 52 0 0.0 0.0 0.00 0.48 0.00 93 1004.4
20260505225403 52 0 0.0 0.0 0.00 0.48 0.00 93 1004.3
20260505224503 52 0 0.0 0.0 0.00 0.50 0.00 93 1004.5